カタログに戻る

STARLINK-34791

運用中通信VLEO
NORAD 65891·PAYLOAD·🇺🇸 United States

打ち上げ Oct 7, 2025 から Cape Canaveral Space Force Station

Loading…

次のパス (今後24時間)

TLE

最新Source: CelesTrak SupGP

元期: Sep 14, 2026, 22:56 UTC

1 65891C 25224K   26257.95604167  .00000005  00000+0  15683-6 0  2574
2 65891  53.1579 211.6202 0001497 107.1255 132.8870 15.34429961    11

AllMySatでSTARLINK-34791をリアルタイム追跡

Download on the App Store